CUBESX-SIRIUS-HSE

Last updated on Thu Apr 22 2021 00:02:03 GMT+0000 (Coordinated Universal Time)

1 47951U 21022V 21111.57698242 .00000493 00000-0 38330-4 0 9999 2 47951 97.5625 14.8616 0022724 141.0254 338.0564 15.05568083 4499
UTC large
Height (km)
Speed (km/s)
/
Latitude / Longitude
Inclination (degrees)
Orbital Period (minutes)
Azimuth
Elevation
Range (km)
Doppler Factor

Next 0 passes for location: London (51.5072 / 0.1276)

Sorry there are no passes over London.